Regional Weather Roundup
Issued by NWS

Home | Current Version | Previous Version | Graphics & Text | Print | Product List | Glossary On
Versions: 1 2 3 4 5 6 7 8 9 10 11 12 13 14 15 16 17 18 19 20 21 22 23 24 25 26 27 28 29 30 31 32 33 34 35 36 37 38 39 40 41 42 43 44 45 46 47 48 49 50
000
ASUS43 KFSD 291510
RWRSD

WEATHER ROUNDUP FOR SOUTH DAKOTA
NATIONAL WEATHER SERVICE SIOUX FALLS SD
1000 AM CDT WED OCT 29 2014

NOTE: "FAIR" INDICATES FEW OR NO CLOUDS BELOW 12,000 FEET WITH NO
SIGNIFICANT WEATHER AND/OR OBSTRUCTIONS TO VISIBILITY.


SDZ001>005-009-010-012>017-291600-
NORTHWEST AND NORTH CENTRAL SOUTH DAKOTA

CITY           SKY/WX    TMP DP  RH WIND       PRES   REMARKS
BUFFALO          N/A     31  23  72 CALM      29.92S
FAITH            N/A     31  26  82 S17       30.02F WCI  19
MOBRIDGE       CLOUDY    35  33  92 S13       30.07S FOG     WCI  26
$$

SDZ012>016-024>037-041>051-057-063-072>074-291600-
SOUTHWEST AND SOUTH CENTRAL SOUTH DAKOTA

CITY           SKY/WX    TMP DP  RH WIND       PRES   REMARKS
RAPID CTY ARPT MOSUNNY   36  25  64 CALM      30.02F
PIERRE         SUNNY     31  29  92 SE7       30.10F WCI  24
CUSTER         SUNNY     41  15  35 W8        30.06S
ELLSWORTH AFB  MOSUNNY   39  23  51 W3        30.01S
PHILIP         SUNNY     26  22  84 CALM      30.07F
PINE RIDGE     SUNNY     36  27  69 W7        30.07S
SPEARFISH      FAIR      46  25  42 CALM      30.01F
WINNER         FAIR      38  29  70 S12       30.12F
$$

SDZ004>011-016>023-039-040-291600-
NORTHEAST SOUTH DAKOTA

CITY           SKY/WX    TMP DP  RH WIND       PRES   REMARKS
ABERDEEN       PTSUNNY   38  29  70 SE6       30.15F
WATERTOWN      CLOUDY    35  30  82 N6        30.15S
SISSETON         N/A     36  28  73 N8        30.16S
$$

SDZ017-020-022-023-036>040-048>070-291600-
SOUTHEAST SOUTH DAKOTA

CITY           SKY/WX    TMP DP  RH WIND       PRES   REMARKS
SIOUX FALLS    SUNNY     40  32  73 N6        30.19R
HURON          SUNNY     36  28  73 CALM      30.17F
CHAMBERLAIN    SUNNY     32  30  92 SE3       30.15S
MITCHELL       SUNNY     35  29  78 CALM      30.19S
YANKTON        SUNNY     36  30  80 CALM      30.22S
$$

ABBREVIATIONS USED IN REMARKS
   TC - TEMPERATURE IN CELSIUS
  WCI - WIND CHILL INDEX
   HX - HEAT INDEX
  VSB - VISIBILITY




USA.gov is the U.S. government's official web portal to all federal, state and local government web resources and services.